Powrót do katalogu

CZ-6A DEB

AktywnyPO
NORAD 61319·DEBRIS·🇨🇳 China

Wystrzelony Aug 6, 2024 z Taiyuan Satellite Launch Center

Loading…

Następne Przeloty (najbliższe 24 godziny)

TLE

ŚwieżeSource: Space-Track

Epoka: Sep 14, 2026, 11:12 UTC

1 61319U 24140UG  26257.46683759  .00001650  00000-0  52461-3 0  9994
2 61319  89.0237 264.7169 0034532 305.0991  54.6973 14.39201472107117

Śledź CZ-6A DEB w czasie rzeczywistym z AllMySat

Download on the App Store